Location: Unspecified
(35.6961°N, 0.0000°E)
Time: 01:08:51
(UTC+00:00)

Altair - Pass Details

Date: 26 May 2019
Orbit: 1501 x 1683 km, 47.2° (Epoch: 16 June)

Event Time Altitude Azimuth Distance (km) Brightness Sun altitude
Rises 01:57:45 0° 218° (SW) 4,843 - -26.5°
Reaches altitude 10° 02:00:52 10° 215° (SW) 3,878 - -26.1°
Exits shadow 02:06:49 41° 199° (SSW) 2,273 7.9 -25.5°
Maximum altitude 02:10:41 63° 137° (SE) 1,829 7.7 -25.0°
Drops below altitude 10° 02:20:39 10° 60° (ENE) 3,948 10.5 -23.8°
Sets 02:23:52 0° 57° (ENE) 4,933 11.4 -23.4°
